Marrakech, Morocco

2:05 AM WET on February 22, 2017 (GMT +0000)
Marrakech

Weather History for GMMX - October, 2013

Change the Weather History Date:

Wednesday, October 16, 2013

  Actual Average Record
Temperature  
Mean Temperature 77 °F -  
Max Temperature 92 °F 75 °F 95 °F (2011)
Min Temperature 62 °F 53 °F 53 °F (2000)
Cooling Degree Days 12    
Growing Degree Days 27 (Base 50)    
Moisture  
Dew Point 52 °F    
Average Humidity 45    
Maximum Humidity 72    
Minimum Humidity 16    
Precipitation  
Precipitation 0.00 in 0.04 in - ()
Sea Level Pressure  
Sea Level Pressure 30.11 in    
Wind  
Wind Speed 2 mph ()    
Max Wind Speed 7 mph    
Max Gust Speed -    
Visibility 5.2 miles    
Events      
Averages and records for this station are not official NWS values.
T = Trace of Precipitation, MM = Missing Value Source: Averaged Metar Reports

Daily Weather History Graph

Daily Weather History Graph

Search for Another Location

Airport or City:

Trip Planner

Search our weather history database for the weather conditions in past years. The results will help you decide how hot, cold, wet, or windy it might be!

Date:

Astronomy

Oct. 16, 2013 Rise Set
Actual Time 7:35 AM WEST 6:58 PM WEST
Civil Twilight 7:11 AM WEST 7:23 PM WEST
Nautical Twilight 6:43 AM WEST 7:51 PM WEST
Astronomical Twilight 6:14 AM WEST 8:19 PM WEST
Moon 5:23 PM WEST (10/16) 4:58 AM WEST (10/16)
Length of Visible Light 12h 11m
Length of Day
11h 22m
Waxing Gibbous, 93% of the Moon is Illuminated
Oct 16
Waxing Gibbous
Oct 19
Full
Oct 27
Last Quarter
Nov 3
New
Nov 10
First Quarter

Hourly Weather History & Observations

Time (WEST) Temp. Heat Index Dew Point Humidity Pressure Visibility Wind Dir Wind Speed Gust Speed Precip Events Conditions
12:00 AM 73.4 °F - 51.8 °F 47% 30.15 in - East 3.5 mph - N/A   Clear
12:30 AM 71.6 °F - 51.8 °F 50% 30.15 in - Variable 2.3 mph - N/A   Clear
12:49 AM 70 °F - 51 °F 41% 30.10 in 6 mi Calm Calm - -  
1:00 AM 69.8 °F - 51.8 °F 53% 30.15 in - Calm Calm - N/A   Clear
1:30 AM 71.6 °F - 51.8 °F 50% 30.15 in - NE 3.5 mph - N/A   Clear
2:00 AM 69.8 °F - 51.8 °F 53% 30.15 in - Calm Calm - N/A   Clear
2:30 AM 68.0 °F - 51.8 °F 56% 30.12 in 5.6 mi Calm Calm - N/A   Unknown
3:00 AM 66.2 °F - 53.6 °F 64% 30.12 in - Variable 2.3 mph - N/A   Clear
3:30 AM 68.0 °F - 53.6 °F 60% 30.12 in - Calm Calm - N/A   Clear
4:00 AM 66 °F - 53 °F 53% 30.09 in 6 mi NE 1.2 mph - -  
4:00 AM 66.2 °F - 53.6 °F 64% 30.12 in - Calm Calm - N/A   Clear
4:30 AM 64.4 °F - 53.6 °F 68% 30.12 in - East 3.5 mph - N/A   Clear
5:00 AM 64.4 °F - 53.6 °F 68% 30.12 in - SW 2.3 mph - N/A   Clear
5:30 AM 64.4 °F - 51.8 °F 64% 30.12 in - WSW 2.3 mph - N/A   Clear
6:00 AM 64.4 °F - 51.8 °F 64% 30.12 in - Calm Calm - N/A   Clear
6:30 AM 64.4 °F - 53.6 °F 68% 30.12 in - ESE 1.2 mph - N/A   Clear
7:00 AM 63 °F - 53 °F 60% 30.11 in 6 mi East 3.5 mph - -  
7:00 AM 62.6 °F - 53.6 °F 72% 30.12 in - East 3.5 mph - N/A   Clear
7:30 AM 64.4 °F - 53.6 °F 68% 30.15 in - Calm Calm - N/A   Clear
8:00 AM 62.6 °F - 51.8 °F 68% 30.15 in - Calm Calm - N/A   Clear
8:30 AM 62.6 °F - 53.6 °F 72% 30.15 in - West 3.5 mph - N/A   Clear
9:00 AM 66.2 °F - 53.6 °F 64% 30.15 in - West 3.5 mph - N/A   Clear
9:30 AM 68.0 °F - 55.4 °F 64% 30.18 in - West 3.5 mph - N/A   Clear
10:00 AM 69 °F - 55 °F 52% 30.13 in 6 mi West 4.6 mph - -  
10:00 AM 69.8 °F - 55.4 °F 60% 30.18 in - West 4.6 mph - N/A   Clear
10:30 AM 71.6 °F - 55.4 °F 57% 30.18 in - West 3.5 mph - N/A   Clear
11:00 AM 73.4 °F - 55.4 °F 53% 30.18 in - Variable 2.3 mph - N/A   Clear
11:30 AM 77.0 °F - 55.4 °F 47% 30.18 in 4.3 mi WNW 3.5 mph - N/A   Unknown
12:00 PM 78.8 °F - 55.4 °F 44% 30.15 in 4.3 mi WNW 3.5 mph - N/A   Unknown
12:30 PM 80.6 °F 80.5 °F 55.4 °F 42% 30.15 in 3.1 mi NNW 3.5 mph - N/A   Unknown
1:00 PM 82.4 °F 81.7 °F 55.4 °F 39% 30.15 in 3.7 mi NNW 3.5 mph - N/A   Unknown
1:30 PM 84.2 °F 82.8 °F 53.6 °F 35% 30.12 in - NNW 4.6 mph - N/A   Clear
2:00 PM 86.0 °F 84.2 °F 53.6 °F 33% 30.12 in - North 4.6 mph - N/A   Clear
2:30 PM 87.8 °F - 51.8 °F 29% 30.09 in - NNW 5.8 mph - N/A   Clear
3:00 PM 89.6 °F - 51.8 °F 27% 30.09 in - NNW 5.8 mph - N/A   Clear
3:30 PM 91.4 °F - 51.8 °F 26% 30.06 in - NNW 4.6 mph - N/A   Clear
4:00 PM 92 °F - 51 °F 16% 29.96 in 6 mi NW 4.6 mph - -  
4:00 PM 91.4 °F - 50.0 °F 24% 30.06 in - Variable 5.8 mph - N/A   Clear
4:30 PM 93.2 °F - 50.0 °F 23% 30.06 in - NW 6.9 mph - N/A   Clear
5:00 PM 93.2 °F - 50.0 °F 23% 30.06 in - Variable 3.5 mph - N/A   Clear
5:30 PM 91.4 °F - 48.2 °F 23% 30.06 in - NNW 5.8 mph - N/A   Clear
6:00 PM 91.4 °F - 48.2 °F 23% 30.06 in - NW 5.8 mph - N/A   Clear
6:30 PM 89.6 °F - 48.2 °F 24% 30.06 in - NW 4.6 mph - N/A   Clear
7:00 PM 88 °F - 49 °F 17% 29.98 in 6 mi West 4.6 mph - -  
7:00 PM 89.6 °F - 48.2 °F 24% 30.06 in - West 4.6 mph - N/A   Clear
7:30 PM 84.2 °F - 51.8 °F 33% 30.06 in - WSW 5.8 mph - N/A   Clear
8:00 PM 82.4 °F - 51.8 °F 35% 30.09 in - West 4.6 mph - N/A   Clear
8:30 PM 80.6 °F - 50.0 °F 34% 30.09 in - West 3.5 mph - N/A   Clear
9:00 PM 80.6 °F - 50.0 °F 34% 30.09 in - Variable 2.3 mph - N/A   Clear
9:30 PM 80.6 °F - 50.0 °F 34% 30.09 in - ENE 4.6 mph - N/A   Clear
10:00 PM 79 °F - 52 °F 28% 30.04 in 6 mi Calm Calm - -  
10:00 PM 78.8 °F - 51.8 °F 39% 30.12 in - Calm Calm - N/A   Clear
10:30 PM 78.8 °F - 51.8 °F 39% 30.09 in - NNE 3.5 mph - N/A   Clear
11:00 PM 77.0 °F - 51.8 °F 41% 30.09 in - East 4.6 mph - N/A   Clear
11:30 PM 75.2 °F - 51.8 °F 44% 30.09 in - ESE 2.3 mph - N/A   Clear